TITAN 3C TRANSTAGE R/B, 2770

Orbit data source: Space-Track

TITAN 3C TRANSTAGE R/B, 2770 is space debris in HEO originally from a launch on Fri, 28 Apr 1967 UTC launched from the Air Force Eastern Test Range (AFETR). Debris objects in space refer to the collection of defunct objects orbiting the Earth. Examples of debris include non-operational satellites, rocket bodies, and fragments generated from explosions, collisions, or faulty payload assembly.

Loading next visibility...
Identifier
2770, 1967-040F
Orbit
HEO
Country
Flag of USUS
Related business
Manufacturer
Martin Marietta
Mission
Spacecraft
Bus & Motor
TRANSTAGE, Unknown motor
Mass
3,103 kg wet, 3,103 kg dry
Launch date (UTC)
1967-04-28 (59 years ago)
Launch vehicle
Unknown
Launch site
Air Force Eastern Test Range (AFETR)
Object type
Payload
Rocket body
Debris
Shape & HBR
Unknown
Radar Cross Section
Large (>1 m²)

Expand to show TLE details & history
Last TLE update: in 1 day

TLE from in 1 day
0 TITAN 3C TRANSTAGE R/B
1 02770U 67040F   25314.40116519 -.00000823  00000-0  00000-0 0  9999
2 02770  17.4017 213.6858 7843074 343.4065   0.8884  0.50946131 22189
Epoch: 2025-11-10T09:37Z
TLE epoch observation values (Epoch: 2025-11-10T09:37:40.672Z)
Latitude
-4.4378°
Longitude
5.2529°
Altitude
7,797.044 km
Speed
7.087 km/s
True Right ascension
13h 17m 53s
True Declination
-4° 25' 28"
Sunlit
Object was in daylight at epoch
Visualization orbit readout
Latitude
Unknown
Longitude
Unknown
Altitude
Unknown
Speed
Unknown
Apparent Right ascension
Unknown
Apparent Declination
Unknown
Sunlit
N/A
Visualization observer readout
Local Sidereal Time
04:21:13
Azimuth
Unknown
Elevation
Unknown
Doppler factor
Unknown
Orbital elements
Apogee altitude
111,784.488 km
Perigee altitude
7,905.727 km
Semi-major axis
66,223.244 km
Eccentricity
0.78431
Inclination
17.4017°
RAAN
213.6858°
Arg. of periapsis
343.4065°
True anomaly
11.77322°
Mean anomaly
0.8884°
Eccentric anomaly
4.10605°
Mean motion
0.12736 °/min
Orbital period
2,826.67 mins
BSTAR
0
Loading maneuver chart data...
Computing Atmospheric mass density...
Loading historical data...
Loading historical data...
Loading historical data...
Loading historical data...
Loading historical data...
Loading historical data...
Loading historical data...

Documentation

Showing up to 5 results
|